Flag for Cuba Weather past 2 weeks in Camagüey, Cuba

Now
70 °F

Passing clouds.


Feels Like: 70 °F
Forecast: 69 / 91 °F
Wind: 1 mph from North

Location: Camaguey Aeropuerto


UV Index: 7 (High)

Visibility: 6 mi


Pressure: 29.92 "Hg

Humidity: 88%

Dew point: 66 °F

Location of CamagüeyLocation

Historic Weather in Camagüey

°F

Camagüey temperature yesterday

Maximum temperature yesterday: 90 °F (at 4:51 PM)
Minimum temperature yesterday: 70 °F (at 2:50 AM)
Average temperature yesterday: 77 °F

Past Weeks' High & Low Weather Summary

 TemperatureHumidityPressure
High91 °F (Apr 8, 1:50 PM)94% (Apr 8, 5:50 AM)30.18 "Hg (Apr 8, 5:50 AM)
Low68 °F (Apr 14, 3:50 AM)27% (Apr 17, 2:50 PM)29.86 "Hg (Apr 15, 3:51 PM)
Average77 °F73%30.01 "Hg
* Reported Apr 8 2:50 AM — Apr 23 2:53 AM, Camagüey, Weather by CustomWeather, © 2014

Note: Actual official high and low records may vary slightly from our data, if they occured in-between our weather recording intervals... More about our weather records

Advertising

Historic Weather Conditions — Data for Previous 24 hours

 ConditionsComfort  
Time TempWeatherWind HumidityBarometerVisibility
2:53 AM
Apr 23
70 °FPassing clouds.6 mph88%29.92 "Hg6 mi
1:52 AM72 °FPassing clouds.3 mph83%29.95 "Hg6 mi
12:53 AM72 °FPassing clouds.3 mph83%29.95 "Hg6 mi
11:50 PM
Apr 22
72 °FPassing clouds.5 mph83%29.98 "Hg6 mi
10:50 PM73 °FPassing clouds.6 mph78%29.95 "Hg6 mi
9:53 PM75 °FPassing clouds.7 mph74%29.95 "Hg6 mi
8:53 PM77 °FPassing clouds.8 mph69%29.95 "Hg6 mi
7:50 PM77 °FPassing clouds.9 mph69%29.92 "Hg6 mi
6:50 PM79 °FPassing clouds.13 mph65%29.89 "HgN/A
5:50 PM82 °FScattered clouds.13 mph58%29.86 "Hg6 mi
4:51 PM90 °FScattered clouds.9 mph31%29.86 "Hg6 mi
3:50 PM88 °FScattered clouds.10 mph35%29.89 "Hg6 mi
2:50 PM86 °FScattered clouds.3 mph40%29.89 "Hg6 mi
1:51 PM86 °FScattered clouds.3 mph40%29.92 "Hg6 mi
12:50 PM84 °FScattered clouds.5 mph48%29.95 "Hg6 mi
11:50 AM84 °FScattered clouds.3 mph48%29.95 "Hg6 mi
10:50 AM81 °FScattered clouds.5 mph54%29.98 "Hg6 mi
9:50 AM79 °FScattered clouds.5 mph61%29.98 "Hg6 mi
8:51 AM77 °FPassing clouds.3 mph65%29.98 "Hg6 mi
7:50 AM73 °FPassing clouds.5 mph74%29.95 "Hg6 mi
6:51 AM72 °FPassing clouds.6 mph78%29.95 "Hg6 mi
5:50 AM70 °FPassing clouds.1 mph83%29.92 "Hg6 mi
4:50 AM70 °FPartly cloudy.2 mph83%29.92 "Hg6 mi
Weather by CustomWeather, © 2014

See weather overview